Time,TemperatureF,DewpointF,PressureIn,WindDirection,WindDirectionDegrees,WindSpeedMPH,WindSpeedGustMPH,Humidity,HourlyPrecipIn,Conditions,Clouds,dailyrainin,SoftwareType,DateUTC
2013-11-22 00:21:00,21.0,17.0,30.60,ENE,63,7.0,13.0,85,0.00,,,0.00,,2013-11-22 06:21:00,
2013-11-22 00:42:00,21.0,17.0,30.60,ENE,59,7.0,15.0,84,0.00,,,0.00,,2013-11-22 06:42:00,
2013-11-22 00:52:00,21.0,17.0,30.60,ENE,61,8.0,16.0,84,0.00,,,0.00,,2013-11-22 06:52:00,
2013-11-22 01:12:00,20.0,16.0,30.61,East,79,9.0,16.0,84,0.00,,,0.00,,2013-11-22 07:12:00,
2013-11-22 01:21:00,20.0,16.0,30.62,ENE,57,6.0,15.0,84,0.00,,,0.00,,2013-11-22 07:21:00,
2013-11-22 01:42:00,20.0,16.0,30.63,ENE,57,6.0,13.0,84,0.00,,,0.00,,2013-11-22 07:42:00,
2013-11-22 01:52:00,20.0,16.0,30.63,ENE,57,7.0,13.0,84,0.00,,,0.00,,2013-11-22 07:52:00,
2013-11-22 02:11:00,20.0,16.0,30.63,NE,55,6.0,14.0,84,0.00,,,0.00,,2013-11-22 08:11:00,
2013-11-22 02:21:00,20.0,16.0,30.64,NE,49,6.0,13.0,84,0.00,,,0.00,,2013-11-22 08:21:00,
2013-11-22 02:42:00,20.0,15.0,30.63,NE,47,8.0,17.0,82,0.00,,,0.00,,2013-11-22 08:42:00,
2013-11-22 02:52:00,20.0,15.0,30.65,NE,45,6.0,16.0,81,0.00,,,0.00,,2013-11-22 08:52:00,
2013-11-22 03:11:00,20.0,15.0,30.65,NE,56,7.0,14.0,79,0.00,,,0.00,,2013-11-22 09:11:00,
2013-11-22 03:21:00,19.0,13.0,30.64,NE,44,8.0,16.0,78,0.00,,,0.00,,2013-11-22 09:21:00,
2013-11-22 03:43:00,18.0,13.0,30.64,ENE,58,4.0,10.0,79,0.00,,,0.00,,2013-11-22 09:43:00,
2013-11-22 03:53:00,18.0,13.0,30.65,NE,42,6.0,13.0,79,0.00,,,0.00,,2013-11-22 09:53:00,
2013-11-22 04:13:00,18.0,13.0,30.64,NE,43,6.0,11.0,79,0.00,,,0.00,,2013-11-22 10:13:00,
2013-11-22 04:23:00,17.0,12.0,30.65,NNE,24,4.0,10.0,80,0.00,,,0.00,,2013-11-22 10:23:00,
2013-11-22 04:42:00,17.0,12.0,30.64,ENE,57,5.0,14.0,79,0.00,,,0.00,,2013-11-22 10:42:00,
2013-11-22 04:53:00,17.0,12.0,30.65,ENE,63,4.0,11.0,79,0.00,,,0.00,,2013-11-22 10:53:00,
2013-11-22 05:12:00,17.0,12.0,30.65,ENE,59,5.0,10.0,79,0.00,,,0.00,,2013-11-22 11:12:00,
2013-11-22 05:22:00,16.0,11.0,30.65,NE,55,5.0,10.0,79,0.00,,,0.00,,2013-11-22 11:22:00,
2013-11-22 05:42:00,16.0,11.0,30.65,NE,56,3.0,9.0,80,0.00,,,0.00,,2013-11-22 11:42:00,
2013-11-22 05:52:00,16.0,11.0,30.66,NE,50,2.0,8.0,80,0.00,,,0.00,,2013-11-22 11:52:00,
2013-11-22 06:22:00,15.0,10.0,30.66,NE,54,2.0,7.0,81,0.00,,,0.00,,2013-11-22 12:22:00,
2013-11-22 06:42:00,15.0,10.0,30.66,ENE,57,2.0,6.0,81,0.00,,,0.00,,2013-11-22 12:42:00,
2013-11-22 06:52:00,15.0,10.0,30.66,NE,53,0.0,6.0,81,0.00,,,0.00,,2013-11-22 12:52:00,
2013-11-22 07:11:00,14.0,10.0,30.66,NE,37,2.0,5.0,82,0.00,,,0.00,,2013-11-22 13:11:00,
2013-11-22 07:22:00,14.0,9.0,30.67,NE,43,1.0,6.0,81,0.00,,,0.00,,2013-11-22 13:22:00,
2013-11-22 07:42:00,14.0,9.0,30.68,ENE,67,0.0,4.0,81,0.00,,,0.00,,2013-11-22 13:42:00,
2013-11-22 07:52:00,14.0,9.0,30.68,ENE,66,0.0,2.0,81,0.00,,,0.00,,2013-11-22 13:52:00,
2013-11-22 08:11:00,14.0,9.0,30.68,ENE,66,0.0,2.0,81,0.00,,,0.00,,2013-11-22 14:11:00,
2013-11-22 08:22:00,15.0,10.0,30.68,NE,51,1.0,4.0,80,0.00,,,0.00,,2013-11-22 14:22:00,
2013-11-22 08:42:00,16.0,11.0,30.68,NE,46,1.0,4.0,79,0.00,,,0.00,,2013-11-22 14:42:00,
2013-11-22 08:52:00,17.0,11.0,30.70,NNE,29,0.0,3.0,78,0.00,,,0.00,,2013-11-22 14:52:00,
2013-11-22 09:11:00,18.0,12.0,30.71,North,360,3.0,6.0,76,0.00,,,0.00,,2013-11-22 15:11:00,
2013-11-22 09:22:00,18.0,12.0,30.72,NNE,29,0.0,6.0,77,0.00,,,0.00,,2013-11-22 15:22:00,
2013-11-22 09:43:00,18.0,11.0,30.74,NNW,340,4.0,7.0,75,0.00,,,0.00,,2013-11-22 15:43:00,
2013-11-22 09:54:00,18.0,11.0,30.74,NNW,335,4.0,8.0,74,0.00,,,0.00,,2013-11-22 15:54:00,
2013-11-22 10:23:00,20.0,13.0,30.76,NE,55,1.0,6.0,74,0.00,,,0.00,,2013-11-22 16:23:00,
2013-11-22 10:43:00,20.0,13.0,30.77,NE,45,3.0,8.0,73,0.00,,,0.00,,2013-11-22 16:43:00,
2013-11-22 10:53:00,21.0,13.0,30.77,NNE,14,4.0,8.0,71,0.00,,,0.00,,2013-11-22 16:53:00,
2013-11-22 11:12:00,22.0,14.0,30.77,NE,49,2.0,9.0,70,0.00,,,0.00,,2013-11-22 17:12:00,
2013-11-22 11:22:00,22.0,14.0,30.77,NNE,32,2.0,7.0,70,0.00,,,0.00,,2013-11-22 17:22:00,
2013-11-22 11:42:00,22.0,13.0,30.76,NE,35,2.0,8.0,69,0.00,,,0.00,,2013-11-22 17:42:00,
2013-11-22 11:52:00,23.0,14.0,30.76,North,360,4.0,7.0,68,0.00,,,0.00,,2013-11-22 17:52:00,
2013-11-22 12:12:00,23.0,14.0,30.76,NE,44,4.0,7.0,68,0.00,,,0.00,,2013-11-22 18:12:00,
2013-11-22 12:21:00,24.0,15.0,30.76,NE,34,1.0,7.0,68,0.00,,,0.00,,2013-11-22 18:21:00,
2013-11-22 12:42:00,24.0,15.0,30.76,NE,55,0.0,7.0,68,0.00,,,0.00,,2013-11-22 18:42:00,
2013-11-22 12:52:00,24.0,14.0,30.76,NNE,32,1.0,6.0,65,0.00,,,0.00,,2013-11-22 18:52:00,
2013-11-22 13:11:00,25.0,14.0,30.75,NE,49,3.0,8.0,63,0.00,,,0.00,,2013-11-22 19:11:00,
2013-11-22 13:22:00,27.0,15.0,30.74,NE,51,4.0,8.0,60,0.00,,,0.00,,2013-11-22 19:22:00,
2013-11-22 13:42:00,26.0,14.0,30.73,NE,48,4.0,10.0,60,0.00,,,0.00,,2013-11-22 19:42:00,
2013-11-22 13:52:00,27.0,14.0,30.72,NE,47,1.0,7.0,58,0.00,,,0.00,,2013-11-22 19:52:00,
2013-11-22 14:11:00,27.0,16.0,30.72,NE,46,1.0,7.0,62,0.00,,,0.00,,2013-11-22 20:11:00,
2013-11-22 14:22:00,27.0,16.0,30.72,NE,46,1.0,7.0,62,0.00,,,0.00,,2013-11-22 20:22:00,
2013-11-22 14:42:00,29.0,15.0,30.69,NE,44,2.0,6.0,55,0.00,,,0.00,,2013-11-22 20:42:00,
2013-11-22 14:52:00,30.0,15.0,30.68,ENE,63,2.0,8.0,52,0.00,,,0.00,,2013-11-22 20:52:00,
2013-11-22 15:11:00,30.0,14.0,30.69,ENE,71,2.0,7.0,51,0.00,,,0.00,,2013-11-22 21:11:00,
2013-11-22 15:22:00,29.0,14.0,30.68,ENE,63,2.0,9.0,52,0.00,,,0.00,,2013-11-22 21:22:00,
2013-11-22 15:43:00,29.0,14.0,30.68,NE,51,1.0,5.0,52,0.00,,,0.00,,2013-11-22 21:43:00,
2013-11-22 15:53:00,29.0,14.0,30.68,NE,52,0.0,5.0,54,0.00,,,0.00,,2013-11-22 21:53:00,
2013-11-22 16:13:00,29.0,14.0,30.68,ENE,57,0.0,4.0,53,0.00,,,0.00,,2013-11-22 22:13:00,
2013-11-22 16:23:00,28.0,14.0,30.69,ENE,57,0.0,0.0,56,0.00,,,0.00,,2013-11-22 22:23:00,
2013-11-22 16:42:00,28.0,15.0,30.68,ENE,57,0.0,0.0,58,0.00,,,0.00,,2013-11-22 22:42:00,
2013-11-22 16:53:00,28.0,16.0,30.69,ENE,57,0.0,0.0,61,0.00,,,0.00,,2013-11-22 22:53:00,
2013-11-22 17:12:00,27.0,15.0,30.68,ENE,57,0.0,0.0,60,0.00,,,0.00,,2013-11-22 23:12:00,
2013-11-22 17:22:00,26.0,15.0,30.68,ENE,57,0.0,0.0,62,0.00,,,0.00,,2013-11-22 23:22:00,
2013-11-22 17:42:00,26.0,15.0,30.68,ENE,57,0.0,0.0,62,0.00,,,0.00,,2013-11-22 23:42:00,
2013-11-22 17:53:00,24.0,15.0,30.68,ENE,57,0.0,0.0,67,0.00,,,0.00,,2013-11-22 23:53:00,
2013-11-22 18:11:00,24.0,14.0,30.68,ENE,57,0.0,0.0,65,0.00,,,0.00,,2013-11-23 00:11:00,
2013-11-22 18:21:00,24.0,14.0,30.68,ENE,57,0.0,0.0,65,0.00,,,0.00,,2013-11-23 00:21:00,
2013-11-22 18:52:00,24.0,14.0,30.68,ENE,57,0.0,0.0,65,0.00,,,0.00,,2013-11-23 00:52:00,
2013-11-22 19:11:00,23.0,13.0,30.69,ENE,57,0.0,0.0,65,0.00,,,0.00,,2013-11-23 01:11:00,
2013-11-22 19:21:00,23.0,13.0,30.69,ENE,57,0.0,0.0,64,0.00,,,0.00,,2013-11-23 01:21:00,
2013-11-22 19:42:00,22.0,13.0,30.69,ENE,57,0.0,0.0,68,0.00,,,0.00,,2013-11-23 01:42:00,
2013-11-22 19:53:00,21.0,13.0,30.68,ENE,57,0.0,0.0,70,0.00,,,0.00,,2013-11-23 01:53:00,
2013-11-22 20:22:00,20.0,13.0,30.68,ENE,57,0.0,0.0,75,0.00,,,0.00,,2013-11-23 02:22:00,
2013-11-22 20:42:00,20.0,14.0,30.67,ENE,57,0.0,0.0,76,0.00,,,0.00,,2013-11-23 02:42:00,
2013-11-22 20:53:00,20.0,14.0,30.66,ENE,57,0.0,0.0,76,0.00,,,0.00,,2013-11-23 02:53:00,
2013-11-22 21:22:00,21.0,15.0,30.66,NE,56,0.0,0.0,77,0.00,,,0.00,,2013-11-23 03:22:00,
2013-11-22 21:43:00,21.0,14.0,30.66,North,355,0.0,2.0,75,0.00,,,0.00,,2013-11-23 03:43:00,
2013-11-22 21:53:00,21.0,15.0,30.66,NNW,327,0.0,2.0,76,0.00,,,0.00,,2013-11-23 03:53:00,
2013-11-22 22:13:00,22.0,14.0,30.68,North,350,3.0,8.0,72,0.00,,,0.00,,2013-11-23 04:13:00,
2013-11-22 22:23:00,23.0,15.0,30.68,North,360,0.0,6.0,72,0.00,,,0.00,,2013-11-23 04:23:00,
2013-11-22 22:43:00,22.0,15.0,30.68,NNW,333,0.0,1.0,75,0.00,,,0.00,,2013-11-23 04:43:00,
2013-11-22 22:53:00,21.0,16.0,30.68,NNW,331,0.0,0.0,79,0.00,,,0.00,,2013-11-23 04:53:00,
2013-11-22 23:12:00,21.0,16.0,30.67,NW,319,0.0,1.0,79,0.00,,,0.00,,2013-11-23 05:12:00,
2013-11-22 23:22:00,22.0,16.0,30.67,NNW,338,0.0,0.0,78,0.00,,,0.00,,2013-11-23 05:22:00,
2013-11-22 23:42:00,22.0,16.0,30.68,NNW,338,0.0,3.0,77,0.00,,,0.00,,2013-11-23 05:42:00,
2013-11-22 23:53:00,22.0,16.0,30.68,NW,314,1.0,4.0,77,0.00,,,0.00,,2013-11-23 05:53:00,